Humidity-temperature Sensor

Selected Measurement Type: Air Temperature

 
Air Temperature [°C]     6 entries per hour
Showing data from 4/26/2015 (00:00:00 Z) to 4/19/2015 (00:01:00 Z)
Previous Next [ Day | 3-Days | 7-Days ]
First Last
Prev [ Day | 3-Days | 7-Days ] Next
First Last

Start Time:     :
End Time:     :     
Time (in GMT) :00 :50 :40 :30 :20 :10
Previous Next [ Day | 3-Days | 7-Days ]
First Last
Prev [ Day | 3-Days | 7-Days ] Next
First Last


123 => good data
MM => data is determined as missing
-- => data not received/configured
Back to Top Back to Top
4/26/2015 00:00 to 23:10 27.79 27.82 27.81 27.84 27.92 27.98
4/25/2015 23:00 to 22:10 27.81 27.94 28.04 27.97 27.93 27.92
4/25/2015 22:00 to 21:10 27.89 28.09 28.12 28.11 28.11 28.13
4/25/2015 21:00 to 20:10 28.24 28.12 28.12 28.08 28.13 28.09
4/25/2015 20:00 to 19:10 28.02 28.20 28.30 28.23 28.13 28.20
4/25/2015 19:00 to 18:10 28.24 28.28 28.26 28.17 28.19 28.15
4/25/2015 18:00 to 17:10 27.88 27.68 28.34 28.09 28.12 27.84
4/25/2015 17:00 to 16:10 27.80 27.65 28.09 28.13 28.16 28.00
4/25/2015 16:00 to 15:10 27.88 27.95 28.04 27.79 27.95 27.94
4/25/2015 15:00 to 14:10 28.01 27.96 27.91 28.18 27.71 27.69
4/25/2015 14:00 to 13:10 27.55 27.59 27.53 27.59 27.35 27.32
4/25/2015 13:00 to 12:10 26.81 26.53 27.67 27.65 27.51 27.02
4/25/2015 12:00 to 11:10 26.95 26.94 26.92 26.90 27.66 27.36
4/25/2015 11:00 to 10:10 27.24 27.20 26.97 26.95 27.07 26.94
4/25/2015 10:00 to 9:10 26.95 26.82 26.46 26.92 27.70 27.77
4/25/2015 09:00 to 8:10 27.84 27.65 27.75 27.90 27.66 27.69
4/25/2015 08:00 to 7:10 27.50 27.10 26.99 26.52 27.63 27.51
4/25/2015 07:00 to 6:10 27.57 27.66 27.41 27.66 27.31 27.03
4/25/2015 06:00 to 5:10 26.72 27.50 27.55 27.56 27.49 27.38
4/25/2015 05:00 to 4:10 27.18 27.32 27.15 27.41 27.44 27.38
4/25/2015 04:00 to 3:10 27.32 27.35 27.12 27.00 27.28 27.07
4/25/2015 03:00 to 2:10 27.39 27.22 27.19 26.99 27.29 27.44
4/25/2015 02:00 to 1:10 27.42 27.34 27.37 27.34 27.15 27.24
4/25/2015 01:00 to 0:10 27.37 27.28 27.34 27.41 27.18 27.64
4/25/2015 00:00 to 23:10 27.32 27.14 27.28 27.15 27.01 27.86
4/24/2015 23:00 to 22:10 27.77 27.38 28.03 28.06 28.06 27.96
4/24/2015 22:00 to 21:10 27.95 28.05 27.82 27.78 27.91 27.87
4/24/2015 21:00 to 20:10 27.87 27.93 27.71 27.90 27.98 27.74
4/24/2015 20:00 to 19:10 27.85 27.83 27.93 27.85 27.79 27.74
4/24/2015 19:00 to 18:10 27.80 27.93 27.79 27.75 27.73 27.56
4/24/2015 18:00 to 17:10 27.69 27.63 27.74 27.53 27.82 27.88
4/24/2015 17:00 to 16:10 27.88 27.73 27.90 27.97 27.82 27.50
4/24/2015 16:00 to 15:10 26.94 26.43 26.16 26.36 27.69 27.85
4/24/2015 15:00 to 14:10 27.59 27.78 27.69 27.64 27.37 27.27
4/24/2015 14:00 to 13:10 27.17 27.26 26.89 26.70 26.08 26.97
4/24/2015 13:00 to 12:10 27.03 26.79 26.47 26.33 26.30 26.55
4/24/2015 12:00 to 11:10 27.38 27.30 26.91 26.67 26.97 27.03
4/24/2015 11:00 to 10:10 27.05 27.24 27.06 26.91 26.85 26.64
4/24/2015 10:00 to 9:10 26.41 26.19 25.99 26.89 26.76 26.90
4/24/2015 09:00 to 8:10 27.16 26.24 27.26 27.29 27.25 27.24
4/24/2015 08:00 to 7:10 27.17 27.23 27.12 27.18 27.44 27.52
4/24/2015 07:00 to 6:10 27.29 27.24 27.10 27.01 26.51 26.01
4/24/2015 06:00 to 5:10 26.09 26.25 26.83 26.89 26.71 26.89
4/24/2015 05:00 to 4:10 26.72 26.70 26.66 26.68 26.64 26.29
4/24/2015 04:00 to 3:10 26.89 26.49 26.64 26.46 26.27 26.42
4/24/2015 03:00 to 2:10 27.66 27.76 27.70 27.20 26.80 27.76
4/24/2015 02:00 to 1:10 28.12 28.04 27.92 27.94 27.90 27.98
4/24/2015 01:00 to 0:10 28.09 28.02 27.96 28.02 28.05 28.03
4/24/2015 00:00 to 23:10 28.04 28.03 27.90 27.98 27.95 28.11
4/23/2015 23:00 to 22:10 28.27 28.50 28.36 28.42 28.44 28.23
4/23/2015 22:00 to 21:10 28.40 28.35 28.31 28.39 28.27 28.18
4/23/2015 21:00 to 20:10 28.31 28.37 28.37 28.22 28.37 28.38
4/23/2015 20:00 to 19:10 28.26 28.28 28.20 28.10 28.32 28.24
4/23/2015 19:00 to 18:10 28.30 28.22 28.30 28.21 28.33 28.23
4/23/2015 18:00 to 17:10 28.30 28.24 28.36 28.23 28.23 28.27
4/23/2015 17:00 to 16:10 28.20 28.20 28.13 28.24 28.16 28.05
4/23/2015 16:00 to 15:10 28.11 28.10 28.19 28.10 28.03 27.97
4/23/2015 15:00 to 14:10 27.97 28.05 28.05 27.85 27.91 27.92
4/23/2015 14:00 to 13:10 27.87 27.80 27.73 27.64 27.39 27.32
4/23/2015 13:00 to 12:10 27.52 27.47 27.39 27.09 27.15 27.63
4/23/2015 12:00 to 11:10 27.83 27.86 27.70 27.48 27.16 27.49
4/23/2015 11:00 to 10:10 27.60 27.63 27.69 27.57 27.54 27.38
4/23/2015 10:00 to 9:10 27.37 27.42 27.16 27.33 27.31 27.46
4/23/2015 09:00 to 8:10 27.66 27.57 27.60 27.61 27.68 27.71
4/23/2015 08:00 to 7:10 27.65 27.68 27.57 27.66 27.68 27.36
4/23/2015 07:00 to 6:10 27.35 27.07 27.27 27.16 27.08 27.13
4/23/2015 06:00 to 5:10 26.57 26.23 26.10 26.93 27.55 27.52
4/23/2015 05:00 to 4:10 27.48 27.54 27.58 27.75 27.66 27.64
4/23/2015 04:00 to 3:10 27.63 27.49 27.62 27.54 27.61 27.59
4/23/2015 03:00 to 2:10 27.42 27.59 27.65 27.60 27.72 27.57
4/23/2015 02:00 to 1:10 27.67 27.69 27.80 27.73 27.78 27.84
4/23/2015 01:00 to 0:10 27.75 27.57 27.61 27.76 27.82 27.84
4/23/2015 00:00 to 23:10 27.95 27.72 27.73 27.19 27.13 27.88
4/22/2015 23:00 to 22:10 28.28 27.97 27.83 27.64 27.48 27.56
4/22/2015 22:00 to 21:10 28.25 27.80 27.56 27.98 27.85 27.80
4/22/2015 21:00 to 20:10 27.93 28.21 28.29 28.27 28.21 28.22
4/22/2015 20:00 to 19:10 28.23 28.02 28.11 28.30 28.14 28.20
4/22/2015 19:00 to 18:10 28.08 28.22 28.13 28.01 28.18 28.08
4/22/2015 18:00 to 17:10 27.92 27.64 27.30 26.74 26.52 26.91
4/22/2015 17:00 to 16:10 26.58 27.74 27.95 27.81 27.96 28.19
4/22/2015 16:00 to 15:10 28.25 28.25 28.14 28.22 28.10 28.12
4/22/2015 15:00 to 14:10 27.77 28.00 27.85 27.82 27.76 27.78
4/22/2015 14:00 to 13:10 27.66 27.71 27.78 27.75 27.56 27.65
4/22/2015 13:00 to 12:10 27.56 27.38 27.30 27.18 27.10 27.24
4/22/2015 12:00 to 11:10 26.94 26.81 26.85 26.77 26.75 26.68
4/22/2015 11:00 to 10:10 26.67 26.61 26.71 26.89 26.89 27.01
4/22/2015 10:00 to 9:10 26.94 26.59 26.81 27.22 27.43 27.46
4/22/2015 09:00 to 8:10 27.52 27.55 27.48 27.55 27.46 27.52
4/22/2015 08:00 to 7:10 27.65 27.41 27.56 27.51 27.60 27.44
4/22/2015 07:00 to 6:10 27.61 27.52 27.56 27.55 27.43 27.54
4/22/2015 06:00 to 5:10 27.49 27.58 27.58 27.56 27.53 27.48
4/22/2015 05:00 to 4:10 27.51 27.37 27.36 27.33 27.12 27.44
4/22/2015 04:00 to 3:10 27.37 27.46 27.32 27.30 27.41 27.27
4/22/2015 03:00 to 2:10 27.38 27.73 27.94 28.00 27.85 27.87
4/22/2015 02:00 to 1:10 27.87 27.86 27.96 27.87 27.84 28.10
4/22/2015 01:00 to 0:10 27.79 27.91 27.91 28.04 28.20 28.18
4/22/2015 00:00 to 23:10 28.26 28.31 28.10 28.13 28.08 28.18
4/21/2015 23:00 to 22:10 28.21 28.07 28.27 28.09 28.07 27.93
4/21/2015 22:00 to 21:10 28.03 28.01 28.00 27.96 27.98 27.92
4/21/2015 21:00 to 20:10 27.92 27.96 28.01 27.91 27.94 28.06
4/21/2015 20:00 to 19:10 27.90 27.84 27.94 27.81 27.92 27.87
4/21/2015 19:00 to 18:10 27.94 27.84 27.80 27.84 27.82 27.86
4/21/2015 18:00 to 17:10 27.93 27.90 28.08 27.92 28.07 27.97
4/21/2015 17:00 to 16:10 28.03 27.78 27.96 27.80 27.81 27.89
4/21/2015 16:00 to 15:10 28.03 27.87 27.80 27.93 27.85 27.82
4/21/2015 15:00 to 14:10 27.82 27.80 27.82 27.88 27.80 27.56
4/21/2015 14:00 to 13:10 27.62 27.62 27.43 27.56 27.49 27.50
4/21/2015 13:00 to 12:10 27.32 27.51 27.40 27.39 27.53 27.35
4/21/2015 12:00 to 11:10 27.52 27.34 27.40 27.43 27.43 27.55
4/21/2015 11:00 to 10:10 27.46 27.42 27.38 27.47 27.33 27.35
4/21/2015 10:00 to 9:10 27.56 27.29 27.42 27.37 27.51 27.49
4/21/2015 09:00 to 8:10 27.46 27.42 27.39 27.52 27.37 27.44
4/21/2015 08:00 to 7:10 27.44 27.56 27.41 27.51 27.44 27.55
4/21/2015 07:00 to 6:10 27.55 27.59 27.48 27.56 27.48 27.60
4/21/2015 06:00 to 5:10 27.58 27.62 27.58 27.62 27.46 27.62
4/21/2015 05:00 to 4:10 27.54 27.65 27.55 27.63 27.53 27.68
4/21/2015 04:00 to 3:10 27.73 27.63 27.58 27.64 27.65 27.66
4/21/2015 03:00 to 2:10 27.63 27.68 27.73 27.69 27.79 27.71
4/21/2015 02:00 to 1:10 27.75 27.65 27.63 27.62 27.79 27.73
4/21/2015 01:00 to 0:10 27.72 27.90 28.14 28.01 28.08 28.15
4/21/2015 00:00 to 23:10 27.85 28.00 27.98 28.11 28.09 28.08
4/20/2015 23:00 to 22:10 28.21 28.09 28.00 27.94 28.01 27.80
4/20/2015 22:00 to 21:10 27.91 28.22 27.89 27.90 27.68 27.72
4/20/2015 21:00 to 20:10 27.82 27.87 27.84 27.78 27.94 27.85
4/20/2015 20:00 to 19:10 27.84 27.90 27.81 27.78 27.79 27.92
4/20/2015 19:00 to 18:10 27.81 27.83 27.79 27.88 27.97 27.85
4/20/2015 18:00 to 17:10 27.90 27.83 27.90 27.90 27.74 28.00
4/20/2015 17:00 to 16:10 27.88 27.86 27.88 27.91 28.02 27.94
4/20/2015 16:00 to 15:10 27.96 27.81 27.97 27.86 27.91 27.78
4/20/2015 15:00 to 14:10 27.92 -- -- -- -- --
4/20/2015 14:00 to 13:10 -- -- -- -- -- --
4/20/2015 13:00 to 12:10 -- -- -- -- -- --
4/20/2015 12:00 to 11:10 -- -- -- -- -- --
4/20/2015 11:00 to 10:10 -- -- -- -- -- --
4/20/2015 10:00 to 9:10 -- -- -- -- -- --
4/20/2015 09:00 to 8:10 -- -- -- -- -- --
4/20/2015 08:00 to 7:10 -- -- -- -- -- --
4/20/2015 07:00 to 6:10 -- -- -- -- -- --
4/20/2015 06:00 to 5:10 -- -- -- -- -- --
4/20/2015 05:00 to 4:10 -- -- -- -- -- --
4/20/2015 04:00 to 3:10 -- -- -- -- -- --
4/20/2015 03:00 to 2:10 -- -- -- -- -- --
4/20/2015 02:00 to 1:10 -- -- -- -- -- --
4/20/2015 01:00 to 0:10 -- -- -- -- -- --
4/20/2015 00:00 to 23:10 -- -- -- -- -- --
4/19/2015 23:00 to 22:10 -- -- -- -- -- --
4/19/2015 22:00 to 21:10 -- -- -- -- -- --
4/19/2015 21:00 to 20:10 -- -- -- -- -- --
4/19/2015 20:00 to 19:10 -- -- -- -- -- --
4/19/2015 19:00 to 18:10 -- -- -- -- -- --
4/19/2015 18:00 to 17:10 -- -- -- -- -- --
4/19/2015 17:00 to 16:10 -- -- -- -- -- --
4/19/2015 16:00 to 15:10 28.21 27.99 28.10 27.79 27.84 27.71
4/19/2015 15:00 to 14:10 27.76 27.67 27.59 27.66 27.65 27.77
4/19/2015 14:00 to 13:10 27.72 27.53 27.53 27.48 27.48 27.52
4/19/2015 13:00 to 12:10 27.48 27.37 27.38 27.42 27.48 27.40
4/19/2015 12:00 to 11:10 27.58 27.39 27.49 27.53 27.41 27.60
4/19/2015 11:00 to 10:10 27.54 27.62 27.38 27.54 27.55 27.58
4/19/2015 10:00 to 9:10 27.60 27.51 27.68 27.72 27.65 27.76
4/19/2015 09:00 to 8:10 27.66 27.65 27.66 27.79 27.69 27.70
4/19/2015 08:00 to 7:10 27.72 27.63 27.86 27.80 27.78 27.80
4/19/2015 07:00 to 6:10 27.80 27.82 27.81 27.89 27.84 27.84
4/19/2015 06:00 to 5:10 27.66 27.79 27.71 27.79 27.82 27.72
4/19/2015 05:00 to 4:10 27.82 27.77 27.73 27.75 27.83 27.75
4/19/2015 04:00 to 3:10 27.75 27.81 27.74 27.74 27.77 27.83
4/19/2015 03:00 to 2:10 27.80 27.66 27.85 27.74 27.75 27.74
4/19/2015 02:00 to 1:10 27.68 27.74 27.74 27.81 27.74 27.77
4/19/2015 01:00 to 0:10 27.73 27.55 27.46 27.34 27.23 27.18